ANZ2C NZQN-NZWN

Flight info

Callsign ANZ2C
Flight time 1h 4m
Altitude 37000
Route QN Q787 TIMJO Y153 DOPKI Y533 GRETA Y393 WARDS
Aircraft A320/M-SDE3FGHIRWY/LB1

Departure

Time 2026-05-08 06:56
Airport Queenstown Airport (NZQN)

Arrival

Time 2026-05-08 08:00
Airport Wellington International Airport (NZWN)
Time Latitude Longitude Altitude Speed Heading
2026-05-08 06:32 -45.02198 168.74111 1174 ft 0 kts 252°
2026-05-08 06:36 -45.02197 168.74113 1175 ft 0 kts 252°
2026-05-08 06:48 -45.02195 168.74123 1170 ft 2 kts 255°
2026-05-08 06:49 -45.02193 168.74159 1171 ft 3 kts 279°
2026-05-08 06:49 -45.02195 168.74180 1172 ft 1 kts 283°
2026-05-08 06:49 -45.02196 168.74181 1172 ft 0 kts 283°
2026-05-08 06:50 -45.02195 168.74179 1172 ft 0 kts 283°
2026-05-08 06:51 -45.02193 168.74178 1171 ft 1 kts 306°
2026-05-08 06:51 -45.02192 168.74177 1171 ft 0 kts 315°
2026-05-08 06:52 -45.02188 168.74180 1169 ft 1 kts 360°
2026-05-08 06:52 -45.02164 168.74179 1173 ft 6 kts 345°
2026-05-08 06:52 -45.02138 168.74166 1169 ft 2 kts 341°
2026-05-08 06:52 -45.02119 168.74154 1169 ft 4 kts 336°
2026-05-08 06:53 -45.02108 168.74122 1173 ft 5 kts 291°
2026-05-08 06:53 -45.02090 168.74074 1172 ft 7 kts 306°
2026-05-08 06:53 -45.02044 168.74059 1173 ft 8 kts 15°
2026-05-08 06:53 -45.01990 168.74089 1175 ft 7 kts 22°
2026-05-08 06:54 -45.01950 168.74106 1174 ft 7 kts 358°
2026-05-08 06:54 -45.01936 168.74105 1174 ft 0 kts 352°
2026-05-08 06:55 -45.01926 168.74104 1175 ft 3 kts
2026-05-08 06:55 -45.01913 168.74130 1177 ft 4 kts 76°
2026-05-08 06:55 -45.01887 168.74288 1179 ft 52 kts 77°
2026-05-08 06:55 -45.01744 168.75209 1187 ft 134 kts 77°
2026-05-08 06:56 -45.01512 168.76702 1545 ft 165 kts 78°
2026-05-08 06:56 -45.01266 168.78321 2331 ft 171 kts 77°
2026-05-08 06:56 -45.01014 168.79928 3123 ft 166 kts 76°
2026-05-08 06:56 -45.00758 168.81523 3646 ft 171 kts 77°
2026-05-08 06:57 -45.00302 168.83085 4309 ft 170 kts 53°
2026-05-08 06:57 -44.99453 168.84179 5023 ft 164 kts 31°
2026-05-08 06:57 -44.98384 168.84686 5627 ft 167 kts
2026-05-08 06:57 -44.97211 168.84511 6251 ft 169 kts 345°
2026-05-08 06:58 -44.96174 168.83700 6835 ft 174 kts 324°
2026-05-08 06:58 -44.95432 168.82348 7496 ft 178 kts 302°
2026-05-08 06:58 -44.95116 168.80620 8025 ft 189 kts 277°
2026-05-08 06:58 -44.95119 168.78769 8600 ft 191 kts 278°
2026-05-08 06:59 -44.95156 168.76877 9204 ft 198 kts 269°
2026-05-08 06:59 -44.95674 168.74928 9500 ft 229 kts 240°
2026-05-08 06:59 -44.96897 168.73395 9944 ft 245 kts 208°
2026-05-08 06:59 -44.98568 168.72862 10452 ft 250 kts 174°
2026-05-08 07:00 -45.00212 168.73545 10905 ft 249 kts 143°
2026-05-08 07:00 -45.01459 168.75223 11244 ft 249 kts 111°
2026-05-08 07:00 -45.01999 168.77429 11805 ft 236 kts 85°
2026-05-08 07:00 -45.01862 168.79664 12005 ft 221 kts 60°
2026-05-08 07:01 -45.01133 168.81469 12032 ft 206 kts 39°
2026-05-08 07:01 -45.00030 168.82667 12031 ft 199 kts 22°
2026-05-08 07:01 -44.98831 168.83816 12121 ft 227 kts 42°
2026-05-08 07:01 -44.97843 168.85735 12407 ft 255 kts 50°
2026-05-08 07:02 -44.96878 168.87985 12640 ft 280 kts 52°
2026-05-08 07:02 -44.95859 168.90471 12834 ft 304 kts 53°
2026-05-08 07:02 -44.94761 168.93145 13074 ft 323 kts 53°
2026-05-08 07:02 -44.93605 168.95906 13631 ft 329 kts 52°
2026-05-08 07:03 -44.92415 168.98686 14278 ft 333 kts 52°
2026-05-08 07:03 -44.91194 169.01477 14936 ft 336 kts 52°
2026-05-08 07:03 -44.89946 169.04280 15604 ft 339 kts 53°
2026-05-08 07:03 -44.88677 169.07100 16233 ft 342 kts 52°
2026-05-08 07:04 -44.87394 169.09937 16883 ft 344 kts 53°
2026-05-08 07:04 -44.86102 169.12799 17553 ft 348 kts 53°
2026-05-08 07:04 -44.84805 169.15684 18195 ft 349 kts 53°
2026-05-08 07:04 -44.83500 169.18590 18823 ft 352 kts 53°
2026-05-08 07:05 -44.82182 169.21518 19448 ft 356 kts 53°
2026-05-08 07:05 -44.80853 169.24471 20054 ft 359 kts 53°
2026-05-08 07:05 -44.79508 169.27452 20648 ft 362 kts 53°
2026-05-08 07:05 -44.78146 169.30463 21228 ft 366 kts 53°
2026-05-08 07:06 -44.76773 169.33496 21744 ft 369 kts 52°
2026-05-08 07:06 -44.75384 169.36554 22267 ft 373 kts 51°
2026-05-08 07:06 -44.73976 169.39652 22814 ft 377 kts 51°
2026-05-08 07:06 -44.72558 169.42772 23262 ft 380 kts 51°
2026-05-08 07:07 -44.71128 169.45918 23726 ft 383 kts 51°
2026-05-08 07:07 -44.69693 169.49081 24186 ft 385 kts 50°
2026-05-08 07:07 -44.68253 169.52255 24625 ft 386 kts 50°
2026-05-08 07:07 -44.66807 169.55436 25028 ft 388 kts 49°
2026-05-08 07:08 -44.65365 169.58595 25448 ft 390 kts 49°
2026-05-08 07:08 -44.63895 169.61807 25873 ft 392 kts 49°
2026-05-08 07:08 -44.62415 169.65034 26308 ft 394 kts 49°
2026-05-08 07:08 -44.60925 169.68282 26745 ft 397 kts 49°
2026-05-08 07:09 -44.59427 169.71548 27156 ft 399 kts 49°
2026-05-08 07:09 -44.57920 169.74827 27569 ft 401 kts 49°
2026-05-08 07:09 -44.56405 169.78123 28005 ft 403 kts 48°
2026-05-08 07:09 -44.54880 169.81439 28332 ft 406 kts 48°
2026-05-08 07:10 -44.53346 169.84779 28702 ft 409 kts 47°
2026-05-08 07:10 -44.51802 169.88141 29071 ft 411 kts 47°
2026-05-08 07:10 -44.50244 169.91521 29423 ft 414 kts 47°
2026-05-08 07:10 -44.48679 169.94916 29735 ft 416 kts 47°
2026-05-08 07:11 -44.47104 169.98321 30036 ft 418 kts 47°
2026-05-08 07:11 -44.45518 170.01739 30323 ft 420 kts 47°
2026-05-08 07:11 -44.43925 170.05169 30653 ft 420 kts 47°
2026-05-08 07:11 -44.42336 170.08590 31094 ft 419 kts 47°
2026-05-08 07:12 -44.40751 170.12007 31510 ft 418 kts 47°
2026-05-08 07:12 -44.39170 170.15411 31870 ft 417 kts 47°
2026-05-08 07:12 -44.37590 170.18807 32192 ft 416 kts 48°
2026-05-08 07:12 -44.36014 170.22186 32636 ft 414 kts 48°
2026-05-08 07:13 -44.34442 170.25551 32953 ft 416 kts 48°
2026-05-08 07:13 -44.32849 170.28955 33089 ft 420 kts 48°
2026-05-08 07:13 -44.31241 170.32392 33220 ft 424 kts 48°
2026-05-08 07:13 -44.29620 170.35847 33341 ft 427 kts 48°
2026-05-08 07:14 -44.27989 170.39320 33457 ft 429 kts 48°
2026-05-08 07:14 -44.26369 170.42769 33572 ft 431 kts 48°
2026-05-08 07:14 -44.24719 170.46272 33690 ft 433 kts 48°
2026-05-08 07:14 -44.23061 170.49786 33808 ft 435 kts 48°
2026-05-08 07:15 -44.21398 170.53318 33943 ft 437 kts 48°
2026-05-08 07:15 -44.19727 170.56866 34050 ft 437 kts 49°
2026-05-08 07:15 -44.18055 170.60407 34207 ft 437 kts 49°
2026-05-08 07:15 -44.16379 170.63946 34338 ft 438 kts 49°
2026-05-08 07:16 -44.14700 170.67483 34486 ft 439 kts 49°
2026-05-08 07:16 -44.13017 170.71033 34618 ft 439 kts 49°
2026-05-08 07:16 -44.11331 170.74588 34753 ft 440 kts 49°
2026-05-08 07:16 -44.09642 170.78146 34893 ft 441 kts 49°
2026-05-08 07:17 -44.07949 170.81699 35015 ft 442 kts 49°
2026-05-08 07:17 -44.06244 170.85266 35144 ft 442 kts 49°
2026-05-08 07:17 -44.04541 170.88826 35262 ft 443 kts 49°
2026-05-08 07:17 -44.02833 170.92395 35353 ft 444 kts 49°
2026-05-08 07:18 -44.01124 170.95968 35548 ft 443 kts 49°
2026-05-08 07:18 -43.99421 170.99526 35695 ft 443 kts 49°
2026-05-08 07:18 -43.97713 171.03085 35826 ft 443 kts 49°
2026-05-08 07:18 -43.96004 171.06647 35964 ft 443 kts 49°
2026-05-08 07:19 -43.94320 171.10152 36106 ft 442 kts 49°
2026-05-08 07:19 -43.92630 171.13660 36239 ft 443 kts 49°
2026-05-08 07:19 -43.89191 171.20790 36258 ft 445 kts 49°
2026-05-08 07:20 -43.85751 171.27903 36260 ft 442 kts 49°
2026-05-08 07:20 -43.82334 171.34972 36263 ft 442 kts 49°
2026-05-08 07:21 -43.78907 171.42019 36259 ft 441 kts 49°
2026-05-08 07:21 -43.75474 171.49065 36263 ft 442 kts 49°
2026-05-08 07:22 -43.72037 171.56109 36273 ft 442 kts 49°
2026-05-08 07:22 -43.68597 171.63144 36268 ft 441 kts 49°
2026-05-08 07:23 -43.65160 171.70150 36286 ft 441 kts 48°
2026-05-08 07:23 -43.61704 171.77169 36279 ft 443 kts 49°
2026-05-08 07:24 -43.58242 171.84197 36281 ft 443 kts 48°
2026-05-08 07:24 -43.54766 171.91232 36291 ft 444 kts 48°
2026-05-08 07:25 -43.51303 171.98237 36299 ft 441 kts 49°
2026-05-08 07:26 -43.46098 172.08711 36300 ft 444 kts 48°
2026-05-08 07:26 -43.42604 172.15726 36318 ft 445 kts 48°
2026-05-08 07:27 -43.39100 172.22754 36322 ft 446 kts 48°
2026-05-08 07:27 -43.35579 172.29777 36333 ft 446 kts 48°
2026-05-08 07:28 -43.32064 172.36780 36347 ft 445 kts 48°
2026-05-08 07:28 -43.28547 172.43769 36327 ft 444 kts 48°
2026-05-08 07:29 -43.25034 172.50741 36338 ft 444 kts 48°
2026-05-08 07:29 -43.21523 172.57693 36345 ft 444 kts 47°
2026-05-08 07:30 -43.18001 172.64628 36347 ft 444 kts 47°
2026-05-08 07:30 -43.14476 172.71570 36360 ft 444 kts 47°
2026-05-08 07:31 -43.10944 172.78513 36366 ft 444 kts 47°
2026-05-08 07:31 -43.07405 172.85454 36371 ft 445 kts 47°
2026-05-08 07:32 -43.03892 172.92336 36381 ft 445 kts 47°
2026-05-08 07:32 -43.00343 172.99263 36373 ft 445 kts 47°
2026-05-08 07:33 -42.97289 173.04875 36387 ft 436 kts 40°
2026-05-08 07:33 -42.92753 173.10125 36393 ft 425 kts 30°
2026-05-08 07:34 -42.87993 173.14891 36390 ft 424 kts 30°
2026-05-08 07:34 -42.83242 173.19657 36365 ft 424 kts 30°
2026-05-08 07:35 -42.78484 173.24409 36383 ft 424 kts 30°
2026-05-08 07:35 -42.73838 173.29054 36371 ft 403 kts 30°
2026-05-08 07:36 -42.69372 173.33524 36383 ft 397 kts 29°
2026-05-08 07:36 -42.67147 173.35739 36230 ft 397 kts 29°
2026-05-08 07:36 -42.64901 173.37967 35209 ft 404 kts 30°
2026-05-08 07:36 -42.62611 173.40231 34440 ft 406 kts 30°
2026-05-08 07:37 -42.60330 173.42491 33715 ft 406 kts 31°
2026-05-08 07:37 -42.58048 173.44750 32872 ft 407 kts 31°
2026-05-08 07:37 -42.55770 173.47006 32227 ft 403 kts 31°
2026-05-08 07:37 -42.53529 173.49231 31783 ft 396 kts 31°
2026-05-08 07:38 -42.51318 173.51427 31281 ft 392 kts 31°
2026-05-08 07:38 -42.49129 173.53593 30768 ft 387 kts 31°
2026-05-08 07:38 -42.46965 173.55723 30298 ft 382 kts 31°
2026-05-08 07:38 -42.44824 173.57825 29813 ft 378 kts 31°
2026-05-08 07:39 -42.42709 173.59901 29288 ft 374 kts 31°
2026-05-08 07:39 -42.40616 173.61960 28820 ft 369 kts 31°
2026-05-08 07:39 -42.38548 173.63994 28346 ft 366 kts 31°
2026-05-08 07:39 -42.36501 173.66005 27878 ft 362 kts 30°
2026-05-08 07:40 -42.34471 173.68003 27430 ft 360 kts 30°
2026-05-08 07:40 -42.32454 173.69989 26965 ft 358 kts 30°
2026-05-08 07:40 -42.30446 173.71958 26513 ft 356 kts 30°
2026-05-08 07:40 -42.28443 173.73918 26069 ft 355 kts 30°
2026-05-08 07:41 -42.26446 173.75872 25622 ft 354 kts 30°
2026-05-08 07:41 -42.24454 173.77821 25152 ft 353 kts 30°
2026-05-08 07:41 -42.22476 173.79756 24685 ft 350 kts 28°
2026-05-08 07:41 -42.20505 173.81685 24247 ft 349 kts 29°
2026-05-08 07:42 -42.18541 173.83601 23806 ft 349 kts 30°
2026-05-08 07:42 -42.16576 173.85519 23361 ft 348 kts 30°
2026-05-08 07:42 -42.14622 173.87418 22911 ft 347 kts 29°
2026-05-08 07:42 -42.12668 173.89313 22415 ft 345 kts 29°
2026-05-08 07:43 -42.10732 173.91200 21977 ft 342 kts 28°
2026-05-08 07:43 -42.08834 173.93026 21548 ft 336 kts 25°
2026-05-08 07:43 -42.06674 173.94211 21134 ft 331 kts
2026-05-08 07:43 -42.04432 173.94701 20743 ft 334 kts
2026-05-08 07:44 -42.02140 173.95141 20359 ft 331 kts
2026-05-08 07:44 -41.99873 173.95581 19964 ft 326 kts
2026-05-08 07:44 -41.97640 173.96037 19586 ft 324 kts
2026-05-08 07:44 -41.95420 173.96489 19120 ft 322 kts
2026-05-08 07:45 -41.93222 173.96943 18699 ft 318 kts
2026-05-08 07:45 -41.91036 173.97399 18132 ft 317 kts
2026-05-08 07:45 -41.88862 173.97862 17675 ft 315 kts
2026-05-08 07:45 -41.86766 173.98787 17099 ft 326 kts 21°
2026-05-08 07:46 -41.84972 174.00782 16378 ft 347 kts 40°
2026-05-08 07:46 -41.83428 174.03302 15651 ft 352 kts 41°
2026-05-08 07:46 -41.81893 174.05852 15112 ft 350 kts 41°
2026-05-08 07:46 -41.80382 174.08383 14665 ft 345 kts 40°
2026-05-08 07:47 -41.78908 174.10859 14447 ft 334 kts 40°
2026-05-08 07:47 -41.77438 174.13305 13711 ft 340 kts 40°
2026-05-08 07:47 -41.75953 174.15751 13232 ft 337 kts 39°
2026-05-08 07:47 -41.74478 174.18169 12729 ft 333 kts 39°
2026-05-08 07:48 -41.73027 174.20552 12393 ft 326 kts 39°
2026-05-08 07:48 -41.71626 174.22866 12163 ft 316 kts 39°
2026-05-08 07:48 -41.70249 174.25131 11760 ft 312 kts 38°
2026-05-08 07:48 -41.68875 174.27373 11326 ft 310 kts 38°
2026-05-08 07:49 -41.67509 174.29592 10866 ft 308 kts 38°
2026-05-08 07:49 -41.66154 174.31795 10467 ft 306 kts 38°
2026-05-08 07:49 -41.64813 174.33980 10190 ft 298 kts 38°
2026-05-08 07:49 -41.63552 174.36061 9808 ft 284 kts 38°
2026-05-08 07:50 -41.62319 174.38087 9630 ft 281 kts 37°
2026-05-08 07:50 -41.61075 174.40106 9506 ft 281 kts 37°
2026-05-08 07:50 -41.59825 174.42127 9221 ft 284 kts 37°
2026-05-08 07:50 -41.58567 174.44165 8829 ft 283 kts 37°
2026-05-08 07:51 -41.57315 174.46197 8371 ft 285 kts 37°
2026-05-08 07:51 -41.56071 174.48218 8113 ft 279 kts 37°
2026-05-08 07:51 -41.54856 174.50201 7889 ft 274 kts 37°
2026-05-08 07:51 -41.53652 174.52162 7522 ft 273 kts 36°
2026-05-08 07:52 -41.52451 174.54112 7008 ft 270 kts 36°
2026-05-08 07:52 -41.51313 174.55988 6857 ft 250 kts 36°
2026-05-08 07:52 -41.50253 174.57749 6537 ft 240 kts 36°
2026-05-08 07:52 -41.49420 174.59757 6096 ft 259 kts 57°
2026-05-08 07:53 -41.49147 174.62220 5622 ft 282 kts 77°
2026-05-08 07:53 -41.49231 174.64845 5259 ft 283 kts 79°
2026-05-08 07:53 -41.49347 174.67456 4978 ft 281 kts 79°
2026-05-08 07:53 -41.49469 174.70030 4635 ft 275 kts 78°
2026-05-08 07:54 -41.49584 174.72555 4124 ft 272 kts 77°
2026-05-08 07:54 -41.49685 174.75082 3554 ft 271 kts 77°
2026-05-08 07:54 -41.49550 174.77410 3277 ft 224 kts 50°
2026-05-08 07:54 -41.48809 174.78902 3163 ft 170 kts 23°
2026-05-08 07:55 -41.47912 174.79577 3082 ft 130 kts
2026-05-08 07:55 -41.47078 174.79733 3027 ft 119 kts 353°
2026-05-08 07:55 -41.46241 174.79782 3006 ft 121 kts 354°
2026-05-08 07:55 -41.45392 174.79838 2908 ft 123 kts 354°
2026-05-08 07:56 -41.44548 174.79896 2606 ft 118 kts 355°
2026-05-08 07:56 -41.43777 174.79953 2315 ft 103 kts 358°
2026-05-08 07:56 -41.43111 174.80001 2072 ft 89 kts 357°
2026-05-08 07:56 -41.42520 174.80042 1903 ft 83 kts 356°
2026-05-08 07:57 -41.41943 174.80078 1760 ft 85 kts 358°
2026-05-08 07:57 -41.41362 174.80115 1676 ft 86 kts 358°
2026-05-08 07:57 -41.40668 174.80154 1638 ft 110 kts
2026-05-08 07:57 -41.39878 174.80205 1580 ft 117 kts 359°
2026-05-08 07:58 -41.39055 174.80259 1531 ft 119 kts 358°
2026-05-08 07:58 -41.38219 174.80314 1498 ft 120 kts 360°
2026-05-08 07:58 -41.37397 174.80370 1476 ft 110 kts 359°
2026-05-08 07:58 -41.36677 174.80424 1251 ft 103 kts
2026-05-08 07:59 -41.35980 174.80488 900 ft 100 kts
2026-05-08 07:59 -41.35258 174.80556 494 ft 112 kts
2026-05-08 07:59 -41.34508 174.80588 414 ft 109 kts
2026-05-08 07:59 -41.33776 174.80619 137 ft 109 kts
2026-05-08 08:00 -41.33063 174.80663 51 ft 92 kts
2026-05-08 08:00 -41.32555 174.80700 30 ft 39 kts
2026-05-08 08:00 -41.32470 174.80706 33 ft 6 kts
2026-05-08 08:00 -41.32421 174.80720 34 ft 8 kts 46°
2026-05-08 08:01 -41.32431 174.80826 34 ft 15 kts 145°
2026-05-08 08:01 -41.32487 174.80830 32 ft 0 kts 183°
2026-05-08 08:02 -41.32510 174.80828 31 ft 8 kts 183°
2026-05-08 08:02 -41.32591 174.80823 28 ft 15 kts 182°
2026-05-08 08:02 -41.32717 174.80815 26 ft 20 kts 183°
2026-05-08 08:03 -41.32865 174.80805 26 ft 22 kts 183°
2026-05-08 08:03 -41.32969 174.80852 26 ft 11 kts 101°
2026-05-08 08:03 -41.32969 174.80860 26 ft 0 kts 95°
2026-05-08 08:04 -41.32969 174.80862 26 ft 0 kts 99°
2026-05-08 08:04 -41.32973 174.80866 26 ft 3 kts 122°
2026-05-08 08:04 -41.33000 174.80871 26 ft 7 kts 180°
2026-05-08 08:04 -41.33076 174.80873 26 ft 15 kts 171°
2026-05-08 08:05 -41.33111 174.80953 26 ft 4 kts 102°
2026-05-08 08:05 -41.33101 174.80985 26 ft 4 kts 21°
2026-05-08 08:05 -41.33083 174.80986 26 ft 1 kts
2026-05-08 08:05 -41.33067 174.80989 26 ft 2 kts 10°
2026-05-08 08:06 -41.33064 174.80990 26 ft 0 kts 12°